Home   Weather   Iquique   Past weeks

Flag for Chile Past Weather in Iquique, Chile — Yesterday and Last 2 Weeks

Now
70 °F

Sunny.


Feels Like: 70 °F
Forecast: 65 / 77 °F
Wind: 14 mph from Southwest

Location: Iquique / Diego Arac

Current Time: Dec 4, 2016 at 11:35:04 am

Latest Report: Dec 4, 2016 at 11:00 am


Visibility: 10 mi

Pressure: 29.98 "Hg

Humidity: 64%

Dew Point: 57 °F

Location of IquiqueLocation

Past Weather in Iquique — Graph

°F

Iquique Temperature Yesterday

Maximum temperature yesterday: 72 °F (at 12:00 pm)
Minimum temperature yesterday: 66 °F (at 12:00 am)
Average temperature yesterday: 69 °F

High & Low Weather Summary for the Past Weeks

 TemperatureHumidityPressure
High72 °F (Nov 19, 2:00 pm)83% (Nov 19, 11:00 pm)30.07 "Hg (Nov 19, 11:00 pm)
Low59 °F (Nov 29, 6:00 am)50% (Nov 21, 3:00 pm)29.83 "Hg (Nov 29, 5:00 pm)
Average67 °F67%29.97 "Hg
* Reported Nov 19 10:00 am — Dec 4 10:00 am, Iquique, Weather by CustomWeather, © 2016

Note: Actual official high and low records may vary slightly from our data, if they occured in-between our weather recording intervals... More about our weather records

Advertising

Iquique Weather History for the Previous 24 Hours

Scroll right to see more
 ConditionsComfort  
Time TempWeatherWind HumidityBarometerVisibility
10:00 am
Sun, Dec 4
68 °FSunny.12 mph69%30.01 "Hg10 mi
9:00 am66 °FSunny.8 mph68%30.01 "Hg10 mi
8:00 am63 °FSunny.No wind73%30.01 "Hg10 mi
7:00 am61 °FSunny.No wind77%29.98 "Hg10 mi
6:00 am63 °FClear.No wind73%29.95 "Hg10 mi
5:00 am63 °FClear.No wind73%29.95 "Hg10 mi
4:00 am63 °FClear.No wind77%29.98 "Hg10 mi
3:00 am64 °FClear.No wind73%29.98 "Hg10 mi
2:00 am64 °FClear.5 mph73%30.01 "Hg10 mi
1:00 am64 °FClear.5 mph73%30.04 "Hg10 mi
12:00 am64 °FClear.5 mph73%30.07 "Hg10 mi
11:00 pm
Sat, Dec 3
66 °FClear.9 mph73%30.07 "Hg10 mi
10:00 pm66 °FClear.14 mph73%30.01 "Hg10 mi
9:00 pm68 °FClear.17 mph69%29.98 "Hg10 mi
8:00 pm68 °FSunny.16 mph69%29.95 "Hg10 mi
7:00 pm70 °FSunny.18 mph69%29.95 "Hg10 mi
6:00 pm72 °FSunny.20 mph65%29.92 "Hg10 mi
5:00 pm72 °FSunny.20 mph65%29.95 "Hg10 mi
4:00 pm72 °FSunny.20 mph65%29.95 "Hg10 mi
3:00 pm70 °FSunny.17 mph64%29.98 "Hg10 mi
2:00 pm72 °FSunny.15 mph61%30.01 "Hg10 mi
1:00 pm72 °FSunny.14 mph57%30.01 "Hg10 mi
12:00 pm72 °FSunny.10 mph53%30.01 "Hg10 mi
11:00 am70 °FSunny.9 mph57%30.01 "Hg10 mi
Weather by CustomWeather, © 2016

See weather overviewHow to use our weather pages